Total_Precipitation_Accumulation
2.05 2.08 1.61 1.01 0.80 0.68 0.63 0.67 0.60 0.52 0.48 0.65 0.71 0.66 0.69 0.66 0.64 0.67 0.70 0.74 0.88 1.08 1.23 1.45 1.67 2.06 2.30 2.61 2.96 3.10 3.39 3.62 3.81 4.01 4.05 3.82 3.56 3.36 3.20 3.15 3.06 2.86 2.69 2.61
1.96 1.58 0.89 0.71 0.73 0.75 0.77 0.83 0.66 0.55 0.50 0.63 0.67 0.62 0.67 0.74 0.74 0.67 0.64 0.68 0.77 0.95 1.09 1.26 1.51 1.86 2.06 2.25 2.49 2.72 2.97 3.26 3.48 3.59 3.66 3.75 3.77 3.54 3.26 3.18 3.18 3.12 3.01 2.86
1.40 0.94 0.66 0.77 0.87 0.95 0.86 0.81 0.69 0.66 0.60 0.70 0.72 0.74 0.67 0.71 0.73 0.72 0.70 0.70 0.76 0.93 1.00 1.12 1.31 1.69 1.89 2.00 2.19 2.40 2.66 2.85 2.99 3.35 3.65 3.74 3.97 3.91 3.49 3.12 2.94 3.05 3.14 3.13
1.16 0.69 0.72 0.89 0.85 0.90 0.95 0.60 0.62 0.70 0.96 1.07 0.82 1.02 0.75 0.69 0.69 0.75 0.79 0.80 0.86 0.94 1.01 1.10 1.19 1.42 1.64 1.72 1.91 2.17 2.47 2.72 2.79 3.08 3.34 3.35 3.30 3.39 3.19 2.99 2.95 3.05 3.12 3.17
1.23 0.79 0.81 0.97 0.73 0.76 0.79 0.58 0.70 0.82 1.02 1.14 0.80 0.95 0.85 0.64 0.75 0.81 0.83 0.88 0.95 0.92 0.95 1.08 1.16 1.24 1.42 1.53 1.63 1.88 2.25 2.56 2.72 2.83 3.02 3.20 3.19 3.20 3.26 3.21 3.11 3.02 2.97 3.03
0.91 0.80 0.90 0.83 0.62 0.71 0.80 0.92 1.06 1.12 1.49 1.58 0.74 0.82 0.90 0.80 0.87 0.81 0.77 0.85 0.93 0.88 0.93 1.00 1.05 1.10 1.28 1.38 1.40 1.60 1.88 2.29 2.67 2.80 2.85 2.94 2.97 2.92 3.02 3.15 3.14 3.08 2.96 2.88
1.11 0.91 0.83 0.83 1.01 1.02 1.25 1.86 2.39 2.31 2.16 1.23 0.46 0.65 0.94 0.84 0.77 0.79 0.78 0.78 0.85 0.88 0.91 0.95 1.00 1.10 1.18 1.28 1.30 1.40 1.55 1.89 2.32 2.57 2.62 2.67 2.72 2.72 2.71 2.87 3.04 3.05 2.93 2.77
1.21 1.07 0.76 0.86 1.18 1.28 1.22 1.62 1.92 1.59 1.04 0.60 0.42 0.65 0.86 0.75 0.67 0.63 0.60 0.61 0.70 0.79 0.82 0.86 0.88 0.95 0.99 1.05 1.16 1.27 1.36 1.53 1.79 2.07 2.25 2.40 2.50 2.52 2.42 2.43 2.70 2.84 2.76 2.68
1.06 0.86 0.52 0.62 0.77 0.96 1.20 1.29 1.14 1.43 1.00 0.70 0.55 0.60 0.63 0.50 0.51 0.53 0.51 0.52 0.61 0.65 0.68 0.71 0.73 0.78 0.80 0.84 0.94 1.07 1.13 1.21 1.39 1.65 1.89 2.11 2.23 2.34 2.35 2.26 2.36 2.64 2.68 2.56
1.07 1.09 0.61 0.64 0.90 1.04 1.10 1.09 1.33 2.03 1.67 0.99 0.57 0.51 0.64 0.56 0.53 0.57 0.54 0.51 0.53 0.55 0.59 0.63 0.66 0.70 0.74 0.77 0.74 0.78 0.93 1.08 1.21 1.32 1.59 1.80 1.97 2.10 2.19 2.23 2.22 2.31 2.42 2.43
0.94 1.31 0.91 0.87 1.14 1.11 1.12 1.36 1.55 1.67 1.42 1.26 0.86 0.73 0.67 0.59 0.57 0.58 0.56 0.51 0.51 0.51 0.57 0.60 0.61 0.65 0.73 0.77 0.70 0.67 0.78 0.93 1.04 1.11 1.30 1.48 1.64 1.81 1.94 2.03 2.06 2.08 2.14 2.24
0.93 1.49 1.17 0.78 0.67 0.72 0.94 1.11 1.37 1.90 1.49 1.16 0.99 0.81 0.59 0.51 0.50 0.53 0.56 0.54 0.52 0.55 0.61 0.60 0.60 0.62 0.70 0.78 0.77 0.71 0.74 0.81 0.92 1.00 1.11 1.31 1.41 1.55 1.72 1.83 1.87 1.87 1.91 1.96
1.32 1.85 1.65 1.15 0.98 0.96 1.10 0.99 1.06 1.52 1.91 1.51 1.22 0.84 0.52 0.41 0.39 0.44 0.51 0.54 0.53 0.57 0.63 0.61 0.62 0.64 0.69 0.77 0.82 0.75 0.74 0.76 0.83 0.96 1.00 1.14 1.28 1.37 1.45 1.57 1.67 1.73 1.76 1.83
1.61 1.86 1.50 1.25 1.16 1.17 1.10 0.88 1.01 1.82 2.35 1.42 0.84 0.58 0.43 0.41 0.47 0.48 0.50 0.54 0.57 0.59 0.63 0.64 0.69 0.71 0.74 0.77 0.82 0.78 0.77 0.75 0.75 0.88 0.96 0.99 1.15 1.27 1.33 1.38 1.46 1.53 1.56 1.63
1.34 1.68 1.08 0.72 0.59 0.77 0.83 0.81 0.94 1.38 1.44 1.38 0.83 0.54 0.51 0.51 0.58 0.58 0.54 0.51 0.52 0.54 0.57 0.61 0.64 0.71 0.75 0.77 0.84 0.84 0.82 0.80 0.75 0.80 0.91 0.96 1.02 1.11 1.23 1.33 1.40 1.49 1.51 1.54
1.12 1.44 1.10 0.79 0.50 0.59 0.68 0.66 0.70 0.84 0.92 0.95 0.71 0.68 0.59 0.54 0.50 0.48 0.47 0.46 0.50 0.52 0.55 0.56 0.55 0.61 0.65 0.75 0.84 0.91 0.90 0.86 0.81 0.78 0.83 0.91 0.99 1.03 1.08 1.18 1.30 1.39 1.50 1.55
1.05 1.30 1.46 1.02 0.56 0.72 0.89 0.78 0.77 0.79 0.81 0.83 0.88 0.80 0.64 0.58 0.53 0.53 0.50 0.46 0.47 0.47 0.48 0.49 0.51 0.58 0.61 0.68 0.77 0.87 0.91 0.88 0.86 0.84 0.83 0.87 0.94 1.04 1.09 1.12 1.22 1.38 1.49 1.65
0.77 1.15 1.68 1.26 0.84 1.06 0.85 0.63 0.65 0.70 0.75 0.78 0.77 0.67 0.62 0.59 0.57 0.56 0.52 0.47 0.45 0.44 0.45 0.45 0.47 0.49 0.51 0.56 0.66 0.78 0.83 0.87 0.88 0.88 0.91 0.93 0.94 1.06 1.17 1.20 1.26 1.37 1.47 1.62
0.45 0.99 1.68 1.49 1.09 0.73 0.48 0.44 0.61 0.71 0.75 0.72 0.60 0.49 0.47 0.47 0.48 0.49 0.46 0.43 0.46 0.47 0.50 0.49 0.49 0.51 0.51 0.54 0.62 0.74 0.81 0.83 0.86 0.90 0.95 0.99 1.02 1.14 1.24 1.26 1.29 1.35 1.42 1.50
0.41 0.83 1.63 1.55 1.30 0.73 0.50 0.31 0.35 0.57 0.83 0.60 0.53 0.52 0.51 0.51 0.61 0.54 0.45 0.42 0.45 0.44 0.46 0.52 0.53 0.51 0.54 0.58 0.62 0.73 0.83 0.92 0.98 1.01 1.04 1.08 1.17 1.30 1.36 1.34 1.33 1.31 1.32 1.33
0.62 1.12 1.47 1.27 1.22 0.67 0.46 0.28 0.30 0.79 0.95 0.53 0.51 0.55 0.57 0.63 0.66 0.56 0.43 0.40 0.44 0.47 0.47 0.49 0.53 0.56 0.60 0.64 0.65 0.69 0.77 0.94 1.05 1.09 1.11 1.13 1.20 1.28 1.34 1.32 1.26 1.24 1.21 1.19
0.57 0.83 0.93 1.00 1.29 0.93 0.48 0.37 0.70 0.91 0.58 0.50 0.51 0.54 0.57 0.56 0.47 0.41 0.41 0.40 0.40 0.42 0.44 0.50 0.57 0.60 0.60 0.67 0.74 0.75 0.80 0.89 0.96 1.02 1.04 1.04 1.07 1.13 1.21 1.25 1.21 1.16 1.17 1.16
0.61 0.79 0.86 0.91 0.99 0.84 0.64 0.70 0.74 0.64 0.58 0.50 0.51 0.50 0.50 0.49 0.46 0.40 0.38 0.38 0.40 0.42 0.45 0.51 0.61 0.66 0.67 0.68 0.75 0.80 0.78 0.79 0.84 0.91 0.96 0.95 0.92 0.95 1.02 1.09 1.13 1.15 1.16 1.16
0.56 0.50 0.67 0.78 0.75 0.64 0.60 0.54 0.50 0.50 0.54 0.49 0.46 0.46 0.48 0.50 0.46 0.42 0.40 0.39 0.38 0.39 0.44 0.51 0.56 0.61 0.64 0.64 0.67 0.71 0.67 0.66 0.70 0.76 0.84 0.87 0.87 0.88 0.88 0.92 1.02 1.10 1.15 1.16
0.61 0.55 0.62 0.68 0.59 0.49 0.47 0.47 0.47 0.45 0.41 0.37 0.36 0.37 0.43 0.45 0.43 0.42 0.43 0.42 0.42 0.43 0.46 0.51 0.58 0.62 0.64 0.61 0.62 0.62 0.61 0.62 0.66 0.67 0.72 0.76 0.82 0.87 0.91 0.92 1.00 1.11 1.17 1.28
0.54 0.61 0.73 0.76 0.59 0.61 0.60 0.50 0.45 0.42 0.41 0.39 0.37 0.34 0.33 0.37 0.41 0.39 0.40 0.40 0.42 0.47 0.48 0.50 0.52 0.58 0.65 0.64 0.61 0.60 0.60 0.62 0.68 0.71 0.71 0.75 0.82 0.86 0.89 0.91 0.96 1.07 1.13 1.19